TimeEST,TemperatureF,Dew PointF,Humidity,Sea Level PressureIn,VisibilityMPH,Wind Direction,Wind SpeedMPH,Gust SpeedMPH,PrecipitationIn,Events,Conditions,WindDirDegrees,DateUTC
12:53 AM,21.0,18.0,88,30.29,8.0,Calm,Calm,-,N/A,,Clear,0,2012-11-20 05:53:00
1:53 AM,21.9,19.0,89,30.28,9.0,Calm,Calm,-,N/A,,Clear,0,2012-11-20 06:53:00
2:53 AM,21.9,18.0,85,30.28,10.0,Calm,Calm,-,N/A,,Clear,0,2012-11-20 07:53:00
3:19 AM,21.2,17.6,86,30.26,9.0,Calm,Calm,-,N/A,,Scattered Clouds,0,2012-11-20 08:19:00
3:28 AM,21.2,17.6,86,30.26,9.0,Calm,Calm,-,N/A,,Mostly Cloudy,0,2012-11-20 08:28:00
3:53 AM,21.9,19.0,89,30.28,8.0,Calm,Calm,-,N/A,,Overcast,0,2012-11-20 08:53:00
4:09 AM,23.0,19.4,86,30.25,1.0,Calm,Calm,-,N/A,,Overcast,0,2012-11-20 09:09:00
4:16 AM,23.0,21.2,93,30.25,0.2,Calm,Calm,-,N/A,Fog,Light Freezing Fog,0,2012-11-20 09:16:00
4:53 AM,24.1,23.0,96,30.27,0.2,Calm,Calm,-,N/A,Fog,Light Freezing Fog,0,2012-11-20 09:53:00
5:53 AM,24.1,23.0,96,30.27,0.5,Calm,Calm,-,N/A,Fog,Light Freezing Fog,0,2012-11-20 10:53:00
6:07 AM,24.8,23.0,93,30.25,1.0,Calm,Calm,-,N/A,,Mist,0,2012-11-20 11:07:00
6:19 AM,24.8,24.8,100,30.25,0.8,Calm,Calm,-,N/A,,Mist,0,2012-11-20 11:19:00
6:26 AM,24.8,24.8,100,30.25,1.5,Calm,Calm,-,N/A,,Mostly Cloudy,0,2012-11-20 11:26:00
6:29 AM,24.8,24.8,100,30.25,2.0,Calm,Calm,-,N/A,,Scattered Clouds,0,2012-11-20 11:29:00
6:49 AM,24.8,23.0,93,30.24,4.0,Calm,Calm,-,N/A,,Clear,0,2012-11-20 11:49:00
6:53 AM,25.0,23.0,92,30.27,4.0,Calm,Calm,-,N/A,,Clear,0,2012-11-20 11:53:00
7:04 AM,24.8,24.8,100,30.25,4.0,Calm,Calm,-,N/A,,Scattered Clouds,0,2012-11-20 12:04:00
7:13 AM,24.8,23.0,93,30.25,3.0,Calm,Calm,-,N/A,,Mostly Cloudy,0,2012-11-20 12:13:00
7:22 AM,26.6,24.8,93,30.25,1.8,Calm,Calm,-,N/A,,Overcast,0,2012-11-20 12:22:00
7:28 AM,26.6,24.8,93,30.25,0.8,Calm,Calm,-,N/A,,Overcast,0,2012-11-20 12:28:00
7:53 AM,28.0,27.0,96,30.27,0.5,Calm,Calm,-,N/A,Fog,Light Freezing Fog,0,2012-11-20 12:53:00
8:53 AM,28.9,28.0,96,30.27,0.2,Calm,Calm,-,N/A,Fog,Light Freezing Fog,0,2012-11-20 13:53:00
9:14 AM,30.2,28.4,93,30.25,1.2,Calm,Calm,-,N/A,,Overcast,0,2012-11-20 14:14:00
9:40 AM,30.2,30.2,100,30.25,1.2,East,3.5,-,N/A,,Overcast,80,2012-11-20 14:40:00
9:53 AM,32.0,30.9,96,30.27,1.2,ENE,3.5,-,N/A,,Overcast,70,2012-11-20 14:53:00
10:02 AM,32.0,30.2,93,30.24,1.5,ENE,3.5,-,N/A,,Overcast,70,2012-11-20 15:02:00
10:22 AM,33.8,32.0,93,30.24,2.0,East,3.5,-,N/A,,Mostly Cloudy,80,2012-11-20 15:22:00
10:34 AM,33.8,33.8,100,30.24,2.5,ENE,4.6,-,N/A,,Mostly Cloudy,70,2012-11-20 15:34:00
10:42 AM,35.6,33.8,93,30.24,3.0,NE,3.5,-,N/A,,Mostly Cloudy,50,2012-11-20 15:42:00
10:53 AM,36.0,33.1,89,30.26,4.0,Calm,Calm,-,N/A,,Mostly Cloudy,0,2012-11-20 15:53:00
11:53 AM,39.0,33.1,79,30.23,4.0,NE,4.6,-,N/A,,Haze,40,2012-11-20 16:53:00
12:53 PM,42.1,33.1,70,30.21,6.0,ENE,4.6,-,N/A,,Haze,60,2012-11-20 17:53:00
1:53 PM,42.1,33.1,70,30.19,6.0,NNE,5.8,-,N/A,,Haze,30,2012-11-20 18:53:00
2:53 PM,42.1,32.0,67,30.19,7.0,NNE,4.6,-,N/A,,Overcast,30,2012-11-20 19:53:00
3:53 PM,39.9,32.0,73,30.20,8.0,NNE,3.5,-,N/A,,Partly Cloudy,30,2012-11-20 20:53:00
4:53 PM,37.0,30.9,79,30.21,8.0,East,3.5,-,N/A,,Scattered Clouds,80,2012-11-20 21:53:00
5:53 PM,32.0,28.0,85,30.22,7.0,Calm,Calm,-,N/A,,Clear,0,2012-11-20 22:53:00
6:53 PM,32.0,28.0,85,30.22,6.0,NNE,3.5,-,N/A,,Scattered Clouds,30,2012-11-20 23:53:00
7:53 PM,28.9,27.0,92,30.22,5.0,Calm,Calm,-,N/A,,Mostly Cloudy,0,2012-11-21 00:53:00
8:53 PM,30.0,27.0,88,30.22,4.0,Calm,Calm,-,N/A,,Scattered Clouds,0,2012-11-21 01:53:00
9:53 PM,28.9,26.1,89,30.22,4.0,Calm,Calm,-,N/A,,Clear,0,2012-11-21 02:53:00
10:53 PM,27.0,24.1,89,30.22,4.0,Calm,Calm,-,N/A,,Clear,0,2012-11-21 03:53:00
11:12 PM,24.8,23.0,93,30.19,1.8,Calm,Calm,-,N/A,,Clear,0,2012-11-21 04:12:00
11:29 PM,26.6,24.8,93,30.19,1.2,Calm,Calm,-,N/A,,Partly Cloudy,0,2012-11-21 04:29:00
11:37 PM,24.8,23.0,93,30.19,2.0,Calm,Calm,-,N/A,,Scattered Clouds,0,2012-11-21 04:37:00
11:45 PM,24.8,23.0,93,30.19,4.0,Calm,Calm,-,N/A,,Partly Cloudy,0,2012-11-21 04:45:00
11:53 PM,25.0,21.9,88,30.22,5.0,Calm,Calm,-,N/A,,Partly Cloudy,0,2012-11-21 04:53:00